�������l�o���
Date,Time,MP-1(��Sv/h),MP-2(��Sv/h),MP-3(��Sv/h),MP-4(��Sv/h),MP-5(��Sv/h),MP-6(��Sv/h),MP-7(��Sv/h),MP-8(��Sv/h),����,����(m/s),���J
2023/06/10,00:00,0.526,0.777,0.479,0.945,0.676,0.319,0.561,0.530,�k�k��,0.6,��
2023/06/10,00:10,0.526,0.779,0.478,0.947,0.678,0.319,0.561,0.527,-,CALM,��
2023/06/10,00:20,0.527,0.778,0.481,0.946,0.678,0.319,0.560,0.528,�k��,0.8,��
2023/06/10,00:30,0.527,0.776,0.477,0.944,0.679,0.318,0.560,0.528,���k��,0.9,��
2023/06/10,00:40,0.527,0.777,0.477,0.945,0.678,0.318,0.560,0.530,�k��,1.2,��
2023/06/10,00:50,0.527,0.777,0.478,0.949,0.677,0.319,0.559,0.529,�k��,0.9,��
2023/06/10,01:00,0.527,0.778,0.479,0.947,0.677,0.318,0.560,0.529,�k��,1.1,��
2023/06/10,01:10,0.525,0.780,0.480,0.946,0.679,0.318,0.560,0.527,�k�k��,1.1,��
2023/06/10,01:20,0.526,0.778,0.478,0.947,0.679,0.319,0.560,0.529,�k��,1.1,��
2023/06/10,01:30,0.527,0.779,0.479,0.948,0.678,0.318,0.560,0.529,���k��,0.6,��
2023/06/10,01:40,0.526,0.779,0.478,0.946,0.679,0.319,0.560,0.530,�k�k��,0.6,��
2023/06/10,01:50,0.525,0.780,0.478,0.946,0.679,0.319,0.560,0.529,-,CALM,��
2023/06/10,02:00,0.528,0.778,0.478,0.947,0.679,0.318,0.561,0.530,��,0.8,��
2023/06/10,02:10,0.526,0.778,0.479,0.948,0.678,0.319,0.560,0.528,��쐼,0.8,��
2023/06/10,02:20,0.528,0.781,0.477,0.948,0.678,0.319,0.560,0.529,��쐼,1.2,��
2023/06/10,02:30,0.527,0.778,0.478,0.946,0.679,0.317,0.562,0.529,�쐼,1.2,��
2023/06/10,02:40,0.527,0.778,0.480,0.946,0.678,0.318,0.560,0.528,��쐼,1.2,��
2023/06/10,02:50,0.527,0.779,0.480,0.948,0.678,0.319,0.562,0.529,��쐼,2.0,��
2023/06/10,03:00,0.527,0.781,0.480,0.949,0.678,0.318,0.562,0.531,��쐼,2.0,��
2023/06/10,03:10,0.526,0.780,0.479,0.945,0.679,0.317,0.559,0.529,��쐼,2.2,��
2023/06/10,03:20,0.528,0.780,0.479,0.949,0.680,0.318,0.562,0.529,��쐼,1.1,��
2023/06/10,03:30,0.527,0.779,0.479,0.948,0.680,0.318,0.560,0.529,��쐼,2.0,��
2023/06/10,03:40,0.526,0.782,0.480,0.947,0.678,0.318,0.561,0.529,��쐼,2.3,��
2023/06/10,03:50,0.527,0.778,0.479,0.947,0.680,0.320,0.560,0.528,��쐼,2.3,��
2023/06/10,04:00,0.526,0.779,0.479,0.948,0.679,0.318,0.561,0.528,��쐼,1.9,��
2023/06/10,04:10,0.527,0.779,0.479,0.948,0.679,0.318,0.561,0.528,��쐼,2.0,��
2023/06/10,04:20,0.527,0.780,0.479,0.948,0.678,0.319,0.560,0.528,��쐼,1.5,��
2023/06/10,04:30,0.526,0.779,0.478,0.947,0.681,0.318,0.560,0.528,��,2.5,��
2023/06/10,04:40,0.526,0.780,0.479,0.947,0.680,0.318,0.561,0.528,��,2.3,��
2023/06/10,04:50,0.527,0.780,0.478,0.947,0.678,0.320,0.560,0.529,��,3.6,��
2023/06/10,05:00,0.526,0.778,0.478,0.948,0.680,0.319,0.561,0.528,��,4.7,��
2023/06/10,05:10,0.526,0.780,0.480,0.947,0.680,0.319,0.559,0.528,��,5.7,��
2023/06/10,05:20,0.527,0.779,0.479,0.949,0.680,0.319,0.561,0.530,��,5.0,��
2023/06/10,05:30,0.526,0.779,0.479,0.948,0.680,0.317,0.562,0.528,��,4.8,��
2023/06/10,05:40,0.527,0.780,0.481,0.949,0.680,0.321,0.561,0.528,��,5.2,��
2023/06/10,05:50,0.526,0.781,0.480,0.948,0.680,0.318,0.561,0.531,��,4.8,��
2023/06/10,06:00,0.527,0.780,0.478,0.949,0.680,0.320,0.562,0.529,��,3.2,��
2023/06/10,06:10,0.528,0.780,0.477,0.948,0.680,0.319,0.561,0.529,��,2.5,��
2023/06/10,06:20,0.529,0.780,0.478,0.949,0.681,0.318,0.561,0.531,��,2.3,��
2023/06/10,06:30,0.527,0.780,0.479,0.948,0.682,0.318,0.561,0.530,��쓌,2.6,��
2023/06/10,06:40,0.528,0.780,0.480,0.948,0.682,0.318,0.561,0.531,��쓌,1.9,��
2023/06/10,06:50,0.528,0.781,0.479,0.949,0.679,0.317,0.561,0.530,��쓌,2.9,��
2023/06/10,07:00,0.527,0.780,0.478,0.951,0.682,0.317,0.561,0.529,��쓌,2.3,��
2023/06/10,07:10,0.527,0.779,0.477,0.949,0.680,0.318,0.561,0.530,��쓌,2.3,��
2023/06/10,07:20,0.525,0.778,0.479,0.949,0.681,0.317,0.561,0.530,��쓌,3.5,��
2023/06/10,07:30,0.525,0.781,0.480,0.948,0.678,0.317,0.561,0.529,��,3.2,��
2023/06/10,07:40,0.528,0.780,0.479,0.949,0.680,0.317,0.559,0.529,��,2.0,��
2023/06/10,07:50,0.528,0.780,0.480,0.947,0.680,0.317,0.560,0.529,��,1.5,��
2023/06/10,08:00,0.525,0.782,0.479,0.949,0.679,0.318,0.559,0.527,��,2.0,��
2023/06/10,08:10,0.527,0.781,0.480,0.950,0.681,0.318,0.559,0.528,��,2.3,��
2023/06/10,08:20,0.526,0.781,0.479,0.950,0.682,0.319,0.561,0.528,��,2.0,��
2023/06/10,08:30,0.527,0.781,0.479,0.950,0.681,0.318,0.560,0.528,��쓌,2.2,��
2023/06/10,08:40,0.528,0.783,0.480,0.948,0.681,0.318,0.560,0.527,��쓌,2.3,��
2023/06/10,08:50,0.529,0.781,0.477,0.949,0.682,0.318,0.560,0.529,��,2.8,��
2023/06/10,09:00,0.527,0.782,0.478,0.949,0.683,0.319,0.561,0.528,��,1.2,��
2023/06/10,09:10,0.530,0.784,0.479,0.951,0.682,0.318,0.564,0.528,��쓌,2.0,��
2023/06/10,09:20,0.529,0.784,0.480,0.950,0.681,0.319,0.561,0.526,��쓌,2.5,��
2023/06/10,09:30,0.528,0.782,0.479,0.951,0.684,0.318,0.562,0.528,��쓌,3.1,��
2023/06/10,09:40,0.530,0.784,0.480,0.950,0.681,0.320,0.561,0.528,��쓌,2.9,��
2023/06/10,09:50,0.531,0.784,0.482,0.950,0.682,0.319,0.561,0.529,��쓌,3.6,��
2023/06/10,10:00,0.529,0.784,0.480,0.950,0.683,0.318,0.561,0.530,��쓌,3.7,��
2023/06/10,10:10,0.529,0.785,0.481,0.951,0.684,0.318,0.561,0.528,��쓌,3.8,��
2023/06/10,10:20,0.529,0.786,0.481,0.954,0.683,0.319,0.561,0.529,��쓌,5.1,��
2023/06/10,10:30,0.531,0.788,0.480,0.951,0.682,0.319,0.561,0.528,��쓌,5.8,��
2023/06/10,10:40,0.530,0.787,0.482,0.951,0.683,0.320,0.563,0.529,��쓌,4.7,��
2023/06/10,10:50,0.530,0.786,0.482,0.951,0.685,0.318,0.562,0.528,��쓌,4.8,��
2023/06/10,11:00,0.532,0.787,0.483,0.950,0.684,0.319,0.562,0.529,��쓌,5.0,��
2023/06/10,11:10,0.531,0.786,0.481,0.950,0.685,0.319,0.562,0.529,��쓌,5.0,��
2023/06/10,11:20,0.532,0.789,0.482,0.948,0.684,0.320,0.562,0.531,��쓌,6.3,��
2023/06/10,11:30,0.530,0.787,0.482,0.949,0.686,0.319,0.563,0.531,��쓌,6.3,��
2023/06/10,11:40,0.532,0.786,0.483,0.951,0.685,0.321,0.561,0.530,��쓌,5.2,��
2023/06/10,11:50,0.530,0.788,0.483,0.950,0.685,0.322,0.562,0.528,��쓌,6.2,��
2023/06/10,12:00,0.531,0.786,0.483,0.951,0.684,0.319,0.561,0.528,��쓌,7.3,��
2023/06/10,12:10,0.530,0.788,0.481,0.951,0.686,0.319,0.563,0.529,��쓌,7.1,��
2023/06/10,12:20,0.531,0.790,0.484,0.951,0.687,0.320,0.562,0.529,��,6.9,��
2023/06/10,12:30,0.531,0.788,0.482,0.953,0.686,0.318,0.560,0.528,��쓌,8.0,��
2023/06/10,12:40,0.530,0.788,0.484,0.950,0.688,0.319,0.562,0.530,��쓌,7.4,��
2023/06/10,12:50,0.532,0.790,0.481,0.950,0.687,0.319,0.561,0.528,��쓌,6.3,��
2023/06/10,13:00,0.531,0.790,0.482,0.951,0.687,0.320,0.563,0.529,�쓌,3.2,��
2023/06/10,13:10,0.532,0.788,0.481,0.949,0.685,0.321,0.563,0.529,���쓌,4.4,��
2023/06/10,13:20,0.531,0.789,0.482,0.951,0.687,0.320,0.563,0.528,�쓌,4.8,��
2023/06/10,13:30,0.530,0.787,0.480,0.949,0.687,0.319,0.562,0.529,�쓌,5.3,��
2023/06/10,13:40,0.531,0.789,0.481,0.951,0.686,0.318,0.563,0.528,�쓌,4.6,��
2023/06/10,13:50,0.531,0.789,0.481,0.953,0.687,0.319,0.562,0.528,�쓌,6.4,��
2023/06/10,14:00,0.531,0.787,0.483,0.952,0.686,0.322,0.563,0.529,��쓌,5.6,��
2023/06/10,14:10,0.532,0.789,0.481,0.951,0.687,0.320,0.564,0.530,��쓌,7.3,��
2023/06/10,14:20,0.532,0.790,0.481,0.953,0.687,0.320,0.563,0.529,��쓌,6.6,��
2023/06/10,14:30,0.531,0.790,0.482,0.952,0.688,0.320,0.563,0.528,��쓌,7.3,��
2023/06/10,14:40,0.529,0.791,0.482,0.955,0.687,0.319,0.565,0.528,��쓌,7.6,��
2023/06/10,14:50,0.531,0.788,0.482,0.953,0.690,0.319,0.562,0.531,��,6.2,��
2023/06/10,15:00,0.532,0.790,0.482,0.952,0.688,0.320,0.561,0.529,��쓌,6.8,��
2023/06/10,15:10,0.532,0.789,0.482,0.951,0.689,0.320,0.563,0.529,��쓌,6.8,��
2023/06/10,15:20,0.534,0.789,0.483,0.953,0.687,0.321,0.561,0.529,��쓌,7.0,��
2023/06/10,15:30,0.532,0.789,0.482,0.952,0.688,0.320,0.564,0.528,��쓌,7.5,��
2023/06/10,15:40,0.533,0.790,0.482,0.954,0.688,0.321,0.563,0.527,��쓌,8.3,��
2023/06/10,15:50,0.533,0.789,0.484,0.953,0.687,0.321,0.562,0.529,��쓌,8.2,��
2023/06/10,16:00,0.532,0.790,0.484,0.955,0.690,0.321,0.562,0.529,��쓌,7.8,��
2023/06/10,16:10,0.531,0.791,0.482,0.953,0.689,0.319,0.562,0.529,��쓌,6.0,��
2023/06/10,16:20,0.531,0.789,0.481,0.954,0.690,0.319,0.563,0.529,��쓌,5.8,��
2023/06/10,16:30,0.530,0.791,0.483,0.954,0.688,0.319,0.563,0.530,��쓌,6.6,��
2023/06/10,16:40,0.532,0.789,0.482,0.953,0.689,0.320,0.563,0.528,��쓌,8.1,��
2023/06/10,16:50,0.533,0.789,0.482,0.955,0.689,0.320,0.563,0.530,��쓌,6.5,��
2023/06/10,17:00,0.532,0.789,0.483,0.955,0.688,0.320,0.561,0.529,��쓌,6.1,��
2023/06/10,17:10,0.532,0.789,0.484,0.952,0.689,0.321,0.562,0.530,��쓌,7.3,��
2023/06/10,17:20,0.532,0.790,0.483,0.955,0.688,0.320,0.563,0.531,��쓌,6.7,��
2023/06/10,17:30,0.532,0.791,0.484,0.955,0.688,0.319,0.563,0.531,��쓌,6.0,��
2023/06/10,17:40,0.532,0.791,0.484,0.955,0.689,0.319,0.563,0.530,��쓌,6.7,��
2023/06/10,17:50,0.532,0.788,0.485,0.957,0.690,0.319,0.563,0.529,��쓌,6.7,��
2023/06/10,18:00,0.531,0.788,0.486,0.957,0.691,0.320,0.564,0.530,��쓌,6.2,��
2023/06/10,18:10,0.531,0.790,0.485,0.956,0.688,0.319,0.563,0.531,��,5.3,��
2023/06/10,18:20,0.531,0.790,0.485,0.955,0.689,0.319,0.563,0.532,��,4.1,��
2023/06/10,18:30,0.531,0.789,0.484,0.957,0.690,0.320,0.564,0.532,��쓌,5.1,��
2023/06/10,18:40,0.530,0.792,0.486,0.955,0.688,0.320,0.563,0.531,��쓌,5.3,��
2023/06/10,18:50,0.531,0.791,0.483,0.956,0.690,0.320,0.563,0.532,��쓌,5.4,��
2023/06/10,19:00,0.532,0.793,0.485,0.957,0.689,0.319,0.563,0.532,��쓌,4.3,��
2023/06/10,19:10,0.531,0.791,0.485,0.957,0.690,0.320,0.563,0.530,��쓌,3.5,��
2023/06/10,19:20,0.531,0.791,0.486,0.955,0.688,0.320,0.564,0.531,��쓌,4.6,��
2023/06/10,19:30,0.531,0.792,0.484,0.956,0.690,0.320,0.565,0.531,��쓌,6.5,��
2023/06/10,19:40,0.531,0.791,0.485,0.957,0.691,0.320,0.564,0.532,��쓌,5.2,��
2023/06/10,19:50,0.531,0.790,0.486,0.956,0.691,0.319,0.565,0.532,��쓌,3.9,��
2023/06/10,20:00,0.531,0.792,0.483,0.956,0.691,0.319,0.564,0.531,��쓌,3.6,��
2023/06/10,20:10,0.532,0.790,0.485,0.955,0.690,0.319,0.565,0.532,��쓌,3.1,��
2023/06/10,20:20,0.533,0.793,0.485,0.957,0.689,0.320,0.563,0.532,��쓌,2.6,��
2023/06/10,20:30,0.533,0.794,0.486,0.957,0.692,0.321,0.565,0.532,��쓌,3.2,��
2023/06/10,20:40,0.533,0.793,0.485,0.958,0.691,0.323,0.565,0.532,��쓌,3.3,��
2023/06/10,20:50,0.533,0.794,0.484,0.956,0.690,0.320,0.563,0.531,��쓌,4.0,��
2023/06/10,21:00,0.534,0.794,0.484,0.957,0.692,0.320,0.565,0.531,��쓌,5.2,��
2023/06/10,21:10,0.534,0.792,0.485,0.954,0.692,0.320,0.566,0.531,��,5.3,��
2023/06/10,21:20,0.534,0.793,0.485,0.958,0.693,0.320,0.564,0.531,��,5.0,��
2023/06/10,21:30,0.534,0.795,0.486,0.957,0.691,0.319,0.564,0.533,��,5.0,��
2023/06/10,21:40,0.533,0.793,0.485,0.956,0.691,0.321,0.565,0.531,��,5.7,��
2023/06/10,21:50,0.533,0.793,0.485,0.953,0.691,0.321,0.565,0.533,��,3.6,��
2023/06/10,22:00,0.533,0.793,0.485,0.956,0.693,0.320,0.564,0.532,��,2.9,��
2023/06/10,22:10,0.533,0.794,0.484,0.955,0.693,0.321,0.563,0.533,��쐼,2.5,��
2023/06/10,22:20,0.531,0.794,0.486,0.956,0.694,0.321,0.565,0.532,��,1.9,��
2023/06/10,22:30,0.533,0.794,0.487,0.958,0.693,0.320,0.566,0.531,��쓌,2.0,��
2023/06/10,22:40,0.533,0.794,0.484,0.956,0.693,0.322,0.565,0.531,��쓌,2.8,��
2023/06/10,22:50,0.533,0.793,0.486,0.956,0.693,0.322,0.564,0.531,��쓌,2.2,��
2023/06/10,23:00,0.533,0.793,0.485,0.957,0.692,0.321,0.564,0.532,��쓌,2.8,��
2023/06/10,23:10,0.534,0.793,0.486,0.958,0.692,0.320,0.564,0.531,��,2.5,��
2023/06/10,23:20,0.534,0.792,0.485,0.956,0.692,0.320,0.566,0.532,��,2.6,��
2023/06/10,23:30,0.534,0.794,0.486,0.956,0.692,0.321,0.564,0.531,��쓌,2.0,��
2023/06/10,23:40,0.533,0.794,0.485,0.956,0.692,0.320,0.562,0.532,��쓌,2.2,��
2023/06/10,23:50,0.533,0.794,0.486,0.957,0.692,0.321,0.564,0.532,�쓌,1.2,��
